Change the Weather History Date:

Saturday, August 25, 2012

  Actual Average Record
Temperature  
Mean Temperature 81 °F 81 °F  
Max Temperature 90 °F 90 °F 100 °F (1938)
Min Temperature 72 °F 72 °F 57 °F (1891)
Cooling Degree Days 16 16  
Month to date cooling degree days 410 423  
Year to date cooling degree days 2094 1834  
Since 1 June cooling degree days 1388 1389  
Growing Degree Days 30 (Base 50)    
Moisture  
Dew Point 70 °F    
Average Humidity 72    
Maximum Humidity 94    
Minimum Humidity 50    
Precipitation  
Precipitation 0.00 in 0.20 in 4.73 in (2008)
Month to date precipitation 3.27 5.87  
Year to date precipitation 50.02 46.07  
Sea Level Pressure  
Sea Level Pressure 30.04 in    
Wind  
Wind Speed 5 mph (ESE)    
Max Wind Speed 14 mph    
Max Gust Speed 20 mph    
Visibility 10 miles    
Events      
T = Trace of Precipitation, MM = Missing Value Source: NWS Daily Summary

Daily Weather History Graph

Daily Weather History Graph

Search for Another Location

Airport or City:

Trip Planner

Search our weather history database for the weather conditions in past years. The results will help you decide how hot, cold, wet, or windy it might be!

Date:

Astronomy

Aug. 25, 2012 Rise Set
Actual Time 6:25 AM CDT 7:23 PM CDT
Civil Twilight 6:00 AM CDT 7:48 PM CDT
Nautical Twilight 5:31 AM CDT 8:17 PM CDT
Astronomical Twilight 5:01 AM CDT 8:47 PM CDT
Moon 2:43 PM CDT (8/25) 12:21 AM CDT (8/25)
Length of Visible Light 13h 47m
Length of Day
12h 57m
Waxing Gibbous, 63% of the Moon is Illuminated
Aug 25
Waxing Gibbous
Aug 31
Full
Sep 8
Last Quarter
Sep 15
New
Sep 22
First Quarter

Hourly Weather History & Observations

Time (CDT) Temp. Heat Index Dew Point Humidity Pressure Visibility Wind Dir Wind Speed Gust Speed Precip Events Conditions
12:56 AM 71.1 °F - 69.1 °F 93% 30.03 in 10.0 mi WNW 4.6 mph - N/A   Partly Cloudy
1:56 AM 73.0 °F - 70.0 °F 90% 30.02 in 10.0 mi Calm Calm - N/A   Partly Cloudy
2:56 AM 73.0 °F - 70.0 °F 90% 30.01 in 10.0 mi Calm Calm - N/A   Partly Cloudy
3:56 AM 73.0 °F - 70.0 °F 90% 30.01 in 10.0 mi NE 4.6 mph - N/A   Partly Cloudy
4:56 AM 73.0 °F - 70.0 °F 90% 30.01 in 10.0 mi ENE 5.8 mph - N/A   Clear
5:56 AM 73.0 °F - 71.1 °F 93% 30.02 in 10.0 mi East 4.6 mph - N/A   Mostly Cloudy
6:56 AM 73.0 °F - 71.1 °F 93% 30.05 in 7.0 mi Calm Calm - N/A   Mostly Cloudy
7:56 AM 75.9 °F - 73.0 °F 91% 30.05 in 10.0 mi Calm Calm - N/A   Mostly Cloudy
8:56 AM 79.0 °F - 72.0 °F 79% 30.06 in 10.0 mi ENE 4.6 mph - N/A   Mostly Cloudy
9:56 AM 82.9 °F 87.5 °F 71.1 °F 67% 30.07 in 10.0 mi ENE 6.9 mph - N/A   Mostly Cloudy
10:56 AM 84.0 °F 87.8 °F 69.1 °F 61% 30.08 in 10.0 mi East 11.5 mph - N/A   Mostly Cloudy
11:56 AM 86.0 °F 90.7 °F 70.0 °F 59% 30.07 in 10.0 mi SE 11.5 mph - N/A   Mostly Cloudy
12:56 PM 88.0 °F 92.1 °F 69.1 °F 53% 30.06 in 10.0 mi ESE 8.1 mph - N/A   Mostly Cloudy
1:56 PM 87.1 °F 90.6 °F 68.0 °F 53% 30.04 in 10.0 mi SE 9.2 mph - N/A   Mostly Cloudy
2:56 PM 89.1 °F 92.9 °F 68.0 °F 50% 30.02 in 10.0 mi SE 9.2 mph - N/A   Mostly Cloudy
3:56 PM 88.0 °F 92.1 °F 69.1 °F 53% 30.01 in 10.0 mi SE 9.2 mph - N/A   Mostly Cloudy
4:56 PM 88.0 °F 92.9 °F 70.0 °F 55% 30.00 in 10.0 mi SE 10.4 mph - N/A   Mostly Cloudy
5:56 PM 86.0 °F 90.1 °F 69.1 °F 57% 30.01 in 10.0 mi SSE 8.1 mph - N/A   Mostly Cloudy
6:56 PM 82.9 °F 86.5 °F 69.1 °F 63% 30.02 in 10.0 mi SSE 6.9 mph - N/A   Mostly Cloudy
7:56 PM 80.1 °F 83.2 °F 70.0 °F 71% 30.04 in 10.0 mi South 4.6 mph - N/A   Mostly Cloudy
8:56 PM 79.0 °F - 69.1 °F 72% 30.05 in 10.0 mi SSE 4.6 mph - N/A   Mostly Cloudy
9:56 PM 73.9 °F - 69.1 °F 85% 30.06 in 10.0 mi Calm Calm - N/A   Scattered Clouds
10:56 PM 73.9 °F - 70.0 °F 87% 30.06 in 10.0 mi Calm Calm - N/A   Mostly Cloudy
11:56 PM 73.0 °F - 70.0 °F 90% 30.04 in 10.0 mi Calm Calm - N/A   Scattered Clouds